FW8396 Weather Reports


Display with metric or nautical units.
time (UTC)temp
F
wind
direction
speed
MPH
gust
MPH
rain 1hr
in
rain 24hr
in
rain mn
in
humidity
%
barometer
mb
20260904073036 83 0 0.0 3.0 0.00 0.01 0.00 84 1014.8
20260904071535 83 155 1.0 6.0 0.00 0.01 0.00 84 1015.0
20260904070035 83 178 1.0 5.0 0.00 0.01 0.00 84 1015.0
20260904064535 83 0 1.0 8.0 0.00 0.01 0.00 84 1015.0
20260904063041 83 0 0.0 4.0 0.00 0.01 0.00 85 1014.9
20260904061533 83 0 2.0 6.0 0.00 0.01 0.00 85 1015.0
20260904060038 83 71 0.0 5.0 0.00 0.01 0.00 85 1015.0
20260904054533 84 126 1.0 6.0 0.00 0.01 0.00 85 1015.0
20260904053033 84 109 1.0 5.0 0.00 0.01 0.00 84 1015.1
20260904051554 84 112 2.0 10.0 0.00 0.01 0.00 84 1014.9
20260904050036 84 126 3.0 12.0 0.00 0.01 0.00 84 1015.0
20260904044537 84 124 1.0 7.0 0.00 0.01 0.01 83 1015.1
20260904043035 84 163 2.0 8.0 0.00 0.01 0.01 83 1015.1
20260904041539 84 110 1.0 7.0 0.00 0.01 0.01 82 1015.2
20260904040039 84 153 2.0 8.0 0.00 0.01 0.01 83 1015.2
20260904034537 84 179 2.0 7.0 0.00 0.01 0.01 83 1015.0
20260904033035 84 128 1.0 10.0 0.00 0.01 0.01 83 1015.2
20260904031534 84 125 1.0 6.0 0.00 0.01 0.01 83 1015.2
20260904030036 84 165 0.0 4.0 0.00 0.01 0.01 83 1014.9
20260904024533 84 107 2.0 5.0 0.00 0.01 0.01 82 1014.9
20260904023037 84 105 2.0 9.0 0.00 0.01 0.01 82 1014.7
20260904021538 84 121 4.0 11.0 0.00 0.01 0.01 82 1014.5
20260904020036 84 102 1.0 6.0 0.00 0.01 0.01 83 1014.5
20260904014539 84 81 1.0 5.0 0.00 0.01 0.01 83 1014.3
20260904013035 84 124 2.0 7.0 0.00 0.01 0.01 83 1014.0
20260904011537 84 112 3.0 10.0 0.00 0.01 0.01 82 1014.1
20260904010044 84 135 1.0 4.0 0.00 0.01 0.01 81 1014.0
20260904004533 84 0 0.0 4.0 0.00 0.01 0.01 80 1013.9
20260904003033 84 108 0.0 4.0 0.00 0.01 0.01 80 1014.0
20260904001541 84 0 0.0 3.0 0.00 0.01 0.01 80 1014.2
20260904000043 84 101 1.0 3.0 0.00 0.01 0.01 79 1014.4
20260903234536 84 82 1.0 4.0 0.00 0.01 0.01 79 1014.3
20260903233036 84 0 0.0 2.0 0.00 0.01 0.01 79 1014.4
20260903231536 84 0 0.0 3.0 0.00 0.01 0.01 78 1014.4
20260903230034 84 0 0.0 4.0 0.00 0.01 0.01 78 1014.5
20260903224535 84 67 2.0 5.0 0.00 0.01 0.01 77 1014.2
20260903223038 84 0 1.0 3.0 0.00 0.01 0.01 75 1014.4
20260903221533 83 0 0.0 3.0 0.00 0.01 0.01 75 1014.4
20260903220039 83 108 1.0 4.0 0.00 0.01 0.01 76 1014.5
20260903214535 83 111 1.0 4.0 0.00 0.01 0.01 77 1015.1
20260903213036 83 137 2.0 7.0 0.00 0.01 0.01 76 1015.5
20260903211536 84 115 4.0 9.0 0.00 0.01 0.01 76 1015.4
20260903210037 84 61 1.0 6.0 0.00 0.01 0.01 76 1015.4
20260903204541 85 355 1.0 6.0 0.00 0.01 0.01 74 1015.4
20260903203038 85 0 1.0 8.0 0.00 0.01 0.01 75 1015.7
20260903201535 85 288 2.0 5.0 0.00 0.01 0.01 77 1015.1
20260903200040 85 305 3.0 8.0 0.00 0.01 0.01 77 1015.2
20260903194534 85 313 1.0 4.0 0.00 0.01 0.01 77 1015.4
20260903193036 85 300 1.0 6.0 0.00 0.01 0.01 77 1015.4
20260903191536 84 284 1.0 7.0 0.00 0.01 0.01 77 1015.5
20260903190034 84 298 1.0 4.0 0.00 0.01 0.01 76 1015.3
20260903184535 85 288 3.0 10.0 0.00 0.01 0.01 74 1015.6
20260903183034 86 286 3.0 10.0 0.00 0.01 0.01 70 1015.8
20260903181535 87 258 2.0 6.0 0.00 0.01 0.01 68 1015.8
20260903180038 88 280 2.0 8.0 0.00 0.01 0.01 69 1015.9
20260903174534 90 96 1.0 6.0 0.00 0.01 0.01 72 1016.2
20260903173033 90 129 1.0 9.0 0.00 0.01 0.01 72 1016.0
20260903171534 90 113 2.0 9.0 0.00 0.01 0.01 73 1015.7
20260903170035 90 75 3.0 9.0 0.00 0.01 0.01 74 1015.9
20260903164543 89 126 2.0 7.0 0.00 0.01 0.01 76 1016.3
20260903163033 88 0 0.0 6.0 0.00 0.01 0.01 78 1016.4
20260903161534 87 101 1.0 4.0 0.00 0.01 0.01 81 1016.2
20260903160054 86 0 1.0 4.0 0.00 0.01 0.01 84 1016.2
20260903154533 85 0 0.0 3.0 0.01 0.01 0.01 86 1016.1
20260903153034 84 0 0.0 0.0 0.01 0.01 0.01 86 1016.0
20260903151534 84 0 0.0 1.0 0.01 0.01 0.01 87 1016.1
20260903150036 84 0 0.0 0.0 0.01 0.01 0.01 86 1016.2
20260903144535 84 0 0.0 2.0 0.00 0.00 0.00 85 1016.4
20260903143034 84 108 0.0 6.0 0.00 0.00 0.00 84 1016.6
20260903141536 84 0 1.0 4.0 0.00 0.00 0.00 83 1016.7
20260903140035 84 126 1.0 4.0 0.00 0.00 0.00 83 1016.7
20260903134537 84 0 0.0 4.0 0.00 0.00 0.00 83 1016.5
20260903133033 84 0 0.0 5.0 0.00 0.00 0.00 83 1016.7
20260903131533 84 134 0.0 5.0 0.00 0.00 0.00 83 1016.6
20260903130037 84 0 1.0 6.0 0.00 0.00 0.00 83 1016.0
20260903124538 84 0 0.0 4.0 0.00 0.00 0.00 83 1016.1
20260903123036 84 177 1.0 7.0 0.00 0.00 0.00 83 1015.8
20260903121534 84 0 1.0 6.0 0.00 0.00 0.00 84 1015.5
20260903120043 84 184 2.0 9.0 0.00 0.00 0.00 84 1015.5
20260903114536 84 146 1.0 4.0 0.00 0.00 0.00 83 1015.5
20260903113037 84 161 0.0 7.0 0.00 0.00 0.00 83 1015.5
20260903111533 84 157 2.0 8.0 0.00 0.00 0.00 82 1015.5
20260903110035 84 153 1.0 5.0 0.00 0.00 0.00 82 1015.6
20260903104538 84 139 1.0 6.0 0.00 0.00 0.00 82 1015.5
20260903103036 84 219 1.0 6.0 0.00 0.00 0.00 83 1015.4
20260903101535 84 165 3.0 7.0 0.00 0.00 0.00 83 1015.2
20260903100035 84 132 2.0 7.0 0.00 0.00 0.00 83 1015.1
20260903094537 84 157 2.0 7.0 0.00 0.00 0.00 83 1015.2
20260903093042 84 208 1.0 5.0 0.00 0.00 0.00 83 1015.2
20260903091531 84 136 1.0 6.0 0.00 0.00 0.00 82 1015.3
20260903090036 84 126 1.0 6.0 0.00 0.00 0.00 82 1015.4
20260903084532 84 154 1.0 12.0 0.00 0.00 0.00 83 1015.3
20260903083036 84 165 2.0 7.0 0.00 0.00 0.00 83 1015.2
20260903081535 84 171 1.0 7.0 0.00 0.00 0.00 83 1015.2
20260903080035 84 119 2.0 7.0 0.00 0.00 0.00 83 1015.2
20260903074535 84 167 2.0 7.0 0.00 0.00 0.00 83 1015.3